Weather in Caruaru

Brazil     8°16′40″S   35°58′23″W
temp.,
°C
wind,
m/s
gust,
m/s
humid.,
%
clouds,
%
prec.,
mm/h
press.,
hPa
HPBL,
m
27 january, wed
wed2700:00+20se2797100 0.0 1013348
03:00+19sse259892 0.0 1011237
06:00+20se259159 0.0 1012380
09:00+25se566772 0.4 1013911
12:00+29ese5549100 0.7 10121452
15:00+29ese564999 1.3 10101462
18:00+24ese687498 0.4 1011809
21:00+21ese488970 0.4 1013582
28 january, thu
thu2800:00+20ese279199 0.1 1012484
03:00+19ese269796 0.1 1011299
06:00+20se249458 0.0 1012262
09:00+25ese456277 0.0 10131014
12:00+28ese455293 0.1 10111291
15:00+28ese555596 0.6 10091286
18:00+23ese487790 1.3 1011682
21:00+21e279364 1.5 1013441
29 january, fri
fri2900:00+20e119579 0.0 101337
03:00+20se119786 0.1 101133
06:00+20ese119552 0.0 101371
09:00+26e356271 0.1 1014932
12:00+31e4437100 0.0 10121932
15:00+29e4442100 0.0 10101769
18:00+25e686998 0.1 1011796
21:00+21e279057 0.1 1013504
30 january, sat
sat3000:00+20ese179781 0.1 1012384
03:00+20ese129886 0.1 101243
06:00+20se119569 0.0 101372
09:00+26e456281 0.1 10141027
12:00+28e5651100 1.1 10131365
15:00+29e554997 3.1 10111544
18:00+24ese587569 1.2 1012625
21:00+21ese388955 1.2 1013511
31 january, sun
sun3100:00+20ese12976 0.0 101358
03:00+21ese259135 0.0 1011466
06:00+20ese269583 0.0 1013345
09:00+26ese466085 0.1 10141120
12:00+30ese554190 0.0 10121711
15:00+31ese553650 0.0 10102141
18:00+25ese576145 0.0 1011820
21:00+21ese379040 0.0 1013488